Regional Weather Roundup
Issued by NWS Little Rock, AR

Home | Current Version | Previous Version | Text Only | Print | Product List | Glossary On
Versions: 1 2 3 4 5 6 7 8 9 10 11 12 13 14 15 16 17 18 19 20 21 22 23 24 25 26 27 28 29 30 31 32
000
ASUS44 KLZK 191905
RWRLZK

WEATHER ROUNDUP FOR ARKANSAS
NATIONAL WEATHER SERVICE LITTLE ROCK AR
200 PM CDT THU APR 19 2018

NOTE: "FAIR" INDICATES FEW OR NO CLOUDS BELOW 12,000 FEET WITH NO
SIGNIFICANT WEATHER AND/OR OBSTRUCTIONS TO VISIBILITY.

ARZ001-003-010-029-192000-
NORTHWEST ARKANSAS

CITY           SKY/WX    TMP DP  RH WIND       PRES   REMARKS
FAYETTEVILLE   SUNNY     54  30  40 NE9G20    30.38F
FORT SMITH     MOSUNNY   60  35  39 VRB5G20   30.36F
HARRISON       SUNNY     53  28  38 N10G17    30.38S
BENTONVILLE    SUNNY     53  31  42 NW9G20    30.41F
ROGERS         SUNNY     51  30  44 NW9G21    30.40S
SILOAM SPGS    SUNNY     54  33  45 N8G16     30.40F
HIGHFILL       SUNNY     56  31  38 N10G21    30.39F
SPRINGDALE     MOSUNNY   54  32  43 N16       30.40F
$$

ARZ004-005-016-192000-
NORTH CENTRAL ARKANSAS

CITY           SKY/WX    TMP DP  RH WIND       PRES   REMARKS
BATESVILLE     SUNNY     56  28  34 N12       30.37S
FLIPPIN        SUNNY     54  29  38 N12       30.40R
MTN HOME       SUNNY     53  27  36 E6        30.37S
$$

ARZ040-041-192000-
WEST CENTRAL ARKANSAS

CITY           SKY/WX    TMP DP  RH WIND       PRES   REMARKS
MENA           NOT AVBL
MOUNT IDA      SUNNY     60  35  39 VRB3      30.31F
$$

ARZ009-017-025-026-028-192000-
NORTHEAST ARKANSAS

CITY           SKY/WX    TMP DP  RH WIND       PRES   REMARKS
CORNING        FAIR      52  28  40 NE10G17   30.39R
JONESBORO      PTSUNNY   52  34  50 NW9G16    30.38R
NEWPORT        FAIR      54  29  38 N10G18    30.38S
WALNUT RIDGE   FAIR      53  30  41 NE10      30.38S
BLYTHEVILLE    PTSUNNY   53  30  41 N18G26    30.38S
$$

ARZ022-023-033-042-044-192000-
CENTRAL ARKANSAS

CITY           SKY/WX    TMP DP  RH WIND       PRES   REMARKS
LITTLE ROCK    PTSUNNY   59  32  36 NW9       30.35F
N LITTLE ROCK    N/A     55  36  49 N5        30.32F
JACKSONVILLE   MOSUNNY   58  32  37 N10G16    30.35S
CONWAY           N/A     59  32  36 N10       30.35F
SEARCY         FAIR      59  34  39 NE13G21   30.36S
HOT SPRINGS    SUNNY     61  33  35 N9        30.33F
RUSSELLVILLE   SUNNY     61  32  33 N13       30.33F
CLINTON        FAIR      57  30  35 NW9G16    30.37S
$$

ARZ036-192000-
EAST ARKANSAS

CITY           SKY/WX    TMP DP  RH WIND       PRES   REMARKS
WEST MEMPHIS   PTSUNNY   55  33  43 N14G23    30.35R
$$

ARZ050-053-066-070-073-192000-
SOUTHWEST ARKANSAS

CITY           SKY/WX    TMP DP  RH WIND       PRES   REMARKS
ARKADELPHIA    FAIR      60  36  40 N9        30.34F
CAMDEN         FAIR      63  30  29 VRB6G17   30.32F
TEXARKANA      SUNNY     63  36  36 N8G18     30.33F
EL DORADO      FAIR      65  39  38 N12       30.31F
DE QUEEN       SUNNY     64  36  35 VRB3G17   30.31F
$$

ARZ056-057-069-192000-
SOUTHEAST ARKANSAS

CITY           SKY/WX    TMP DP  RH WIND       PRES   REMARKS
PINE BLUFF     FAIR      58  32  37 NE18      30.35F
STUTTGART      FAIR      56  31  38 N10       30.36S
MONTICELLO     FAIR      58  32  37 N8G17     30.33F

$$






USA.gov is the U.S. government's official web portal to all federal, state and local government web resources and services.